Regional Weather Roundup
Issued by NWS

Home | Current Version | Previous Version | Text Only | Print | Product List | Glossary On
Versions: 1 2 3 4 5 6 7 8 9 10 11 12 13 14 15 16 17 18 19 20 21 22 23 24 25 26 27
000
ASUS45 KSLC 310510
RWRUT

UTAH REGIONAL WEATHER ROUNDUP
NATIONAL WEATHER SERVICE SALT LAKE CITY UT
1100 PM MDT SAT JUL 30 2016

UTZ001>011-023>025-310600-

NORTHERN UTAH

CITY           SKY/WX    TMP DP  RH WIND       PRES   REMARKS
BRIGHAM CITY     N/A     80  43  26 SE7       29.92F
HILL AFB       NOT AVBL
LOGAN          CLOUDY    81  46  29 E6        29.92F
OGDEN          MOCLDY    83  45  26 E5        29.94F
PROVO AIRPORT  CLOUDY    77  50  38 E9        30.04R
SALT LAKE CITY MOCLDY    86  47  25 SE6       29.95R
VERNAL         PTCLDY    80  43  26 W9G18     30.02R
WENDOVER       MOCLDY    79  48  34 W7        29.95S
HEBER CITY     CLOUDY    73  46  38 E6        30.09R

$$

UTZ012>022-026-027-310600-

SOUTHERN/CENTRAL UTAH

CITY           SKY/WX    TMP DP  RH WIND       PRES   REMARKS
BLANDING       MOCLDY    79  45  30 SE23G35   30.18R
BRYCE CANYON   LGT RAIN  56  51  84 S9        30.27F
CEDAR CITY     CLOUDY    68  55  63 SE14      30.12F
DELTA          MOCLDY    75  48  38 S7        30.06R
MILFORD        CLOUDY    70  56  61 W15       30.06F
MOAB/CYNLANDS  MOCLDY    86  45  23 W18       29.95R
PRICE          CLOUDY    77  43  29 N16       30.10F
ST GEORGE      CLOUDY    72  61  68 SW8       29.96F

$$

REGIONAL REPORTS     COLORADO/ARIZONA

CITY           SKY/WX    TMP DP  RH WIND       PRES   REMARKS
CRAIG, CO      CLOUDY    62  44  51 CALM      30.11R
GRAND JUNCTION CLEAR     80  40  23 SE7       29.95R
RIFLE          CLOUDY    75  40  28 SE9       30.02F
MONTROSE       CLEAR     73  42  32 SE10      30.07S
CORTEZ         LGT RAIN  74  49  41 SW9       30.17R
PAGE, AZ       CLOUDY    80  53  39 W6        30.02R
GRAND CANYON   MOCLDY    69  50  50 S5        30.23R
KINGMAN        PTCLDY    80  56  43 CALM      29.98R
FLAGSTAFF      CLOUDY    58  54  86 N3        30.27F

$$

REGIONAL REPORTS    NEVADA/IDAHO/WYOMING

CITY           SKY/WX    TMP DP  RH WIND       PRES   REMARKS
LAS VEGAS, NV  PTCLDY    98  53  22 SW12G20   29.75R HX  96
ELY            MOCLDY    63  49  60 S3        30.13R
ELKO           PTCLDY    76  44  32 NW7       29.98R
POCATELLO, ID  PTCLDY    81  42  25 SW13      29.90R
BURLEY         PTCLDY    75  49  39 S14       29.88R
EVANSTON, WY   CLOUDY    66  42  41 W7        30.17R
ROCK SPRINGS   CLOUDY    68  42  38 SW12      30.12S
KEMMERER         N/A    N/A N/A N/A SW3       30.17S

$$




USA.gov is the U.S. government's official web portal to all federal, state and local government web resources and services.